K7JKM Weather Reports


time (UTC)temp
F
wind
direction
speed
knots
gust
knots
rain 1hr
in
rain 24hr
in
rain mn
in
humidity
%
barometer
mb
20260504220011 74 111 0.0 2.6 0.00 0.00 0.00 45 1012.4
20260504214508 74 124 0.0 3.5 0.00 0.00 0.00 45 1012.6
20260504213004 73 138 0.0 2.6 0.00 0.00 0.00 43 1012.8
20260504211503 73 120 0.0 0.9 0.00 0.00 0.00 45 1013.0
20260504210032 72 217 0.0 3.5 0.00 0.00 0.00 47 1013.1
20260504204523 72 221 0.0 0.9 0.00 0.00 0.00 45 1013.5
20260504203024 71 148 0.0 0.9 0.00 0.00 0.00 46 1013.8
20260504201516 69 122 0.0 1.7 0.00 0.00 0.00 49 1013.8
20260504200012 68 295 0.9 4.3 0.00 0.00 0.00 49 1013.9
20260504194511 69 141 0.0 1.7 0.00 0.00 0.00 50 1014.1
20260504193014 67 118 0.0 2.6 0.00 0.00 0.00 50 1014.0
20260504191528 66 122 0.0 0.9 0.00 0.00 0.00 52 1014.1
20260504190026 65 110 0.0 2.6 0.00 0.00 0.00 53 1014.3
20260504184524 65 153 0.0 0.9 0.00 0.00 0.00 54 1014.5
20260504183025 63 143 0.0 2.6 0.00 0.00 0.00 55 1014.4
20260504181517 63 124 0.0 1.7 0.00 0.00 0.00 55 1014.4
20260504180016 62 107 0.0 0.9 0.00 0.00 0.00 57 1014.3
20260504174512 61 214 0.0 0.9 0.00 0.00 0.00 58 1014.4
20260504173028 61 200 0.0 0.9 0.00 0.00 0.00 57 1014.3
20260504171526 60 121 0.0 0.9 0.00 0.00 0.00 58 1014.4
20260504081505 59 259 0.0 1.7 0.00 0.00 0.00 60 1009.9
20260504050012 71 283 0.0 0.0 0.00 0.00 0.00 40 1008.1
20260504044526 73 283 0.0 0.0 0.00 0.00 0.00 36 1007.9
20260504043030 73 321 0.0 0.9 0.00 0.00 0.00 35 1007.6
20260504041525 74 264 0.0 1.7 0.00 0.00 0.00 34 1007.5
20260504040025 75 219 0.0 0.9 0.00 0.00 0.00 34 1007.2
20260504034522 77 291 0.0 0.9 0.00 0.00 0.00 32 1007.1
20260504033021 78 293 0.0 1.7 0.00 0.00 0.00 32 1007.0
20260504031517 80 292 0.0 1.7 0.00 0.00 0.00 31 1007.0
20260504030029 82 285 0.0 2.6 0.00 0.00 0.00 30 1007.0
20260504024530 85 229 0.0 0.9 0.00 0.00 0.00 24 1006.7
20260504023027 86 224 0.0 0.0 0.00 0.00 0.00 22 1006.7
20260504021528 88 297 0.0 0.9 0.00 0.00 0.00 19 1006.7
20260504020002 88 227 0.0 3.5 0.00 0.00 0.00 19 1006.7
20260504014503 88 289 0.0 2.6 0.00 0.00 0.00 20 1006.7
20260504013007 89 41 0.0 3.5 0.00 0.00 0.00 21 1006.8
20260504011503 90 302 0.0 2.6 0.00 0.00 0.00 20 1006.9
20260504010003 92 287 0.0 0.9 0.00 0.00 0.00 18 1007.1
20260504004506 91 283 0.9 5.2 0.00 0.00 0.00 18 1007.2
20260504003004 91 287 0.0 3.5 0.00 0.00 0.00 18 1007.3
20260504001503 91 290 0.0 4.3 0.00 0.00 0.00 19 1007.4
20260504000005 91 302 0.9 5.2 0.00 0.00 0.00 19 1007.3
20260503234503 91 26 0.0 2.6 0.00 0.00 0.00 21 1007.3
20260503233002 91 330 0.0 1.7 0.00 0.00 0.00 19 1007.5
20260503231504 91 310 0.0 1.7 0.00 0.00 0.00 18 1007.7
20260503230004 90 206 0.0 2.6 0.00 0.00 0.00 22 1008.0
20260503224504 91 80 0.0 2.6 0.00 0.00 0.00 21 1008.3
20260503223005 90 311 0.0 1.7 0.00 0.00 0.00 20 1008.4
20260503221506 90 302 0.0 0.9 0.00 0.00 0.00 24 1008.6